Weather History for Caribou, ME

Change the Weather History Date:

Monday, June 17, 2013

  Actual Average Record
Temperature  
Mean Temperature 58 °F 61 °F  
Max Temperature 64 °F 72 °F 91 °F (1949)
Min Temperature 51 °F 50 °F 36 °F (1964)
Degree Days  
Heating Degree Days 7 5  
Month to date heating degree days 115 116  
Since 1 June heating degree days 115 116  
Since 1 July heating degree days 8478 9305  
Cooling Degree Days 0 1  
Month to date cooling degree days 5 14  
Year to date cooling degree days 13 19  
Since 1 June cooling degree days 5 14  
Growing Degree Days 7 (Base 50)    
Moisture  
Dew Point 53 °F    
Average Humidity 85    
Maximum Humidity 96    
Minimum Humidity 73    
Precipitation  
Precipitation 0.02 in 0.12 in 0.93 in (1977)
Month to date precipitation 3.57 1.88  
Year to date precipitation 17.59 15.30  
Snow  
Snow 0.00 in 0.00 in 0.00 in (2002)
Month to date snowfall 0.0 0.0  
Since 1 June snowfall 0.0 0.0  
Since 1 July snowfall 106.9 108.7  
Snow Depth 0.00 in    
Sea Level Pressure  
Sea Level Pressure 29.75 in    
Wind  
Wind Speed 3 mph (SE)    
Max Wind Speed 8 mph    
Max Gust Speed 12 mph    
Visibility 10 miles    
Events Rain    
T = Trace of Precipitation, MM = Missing Value Source: NWS Daily Summary

Daily Weather History Graph

Daily Weather History Graph

Search for Another Location

Airport:

Trip Planner

Search our weather history database for the weather conditions in past years. The results will help you decide how hot, cold, wet, or windy it might be!

Date:

Astronomy

Jun. 17, 2013 Rise Set
Actual Time 4:36 AM EDT 8:29 PM EDT
Civil Twilight 3:57 AM EDT 9:08 PM EDT
Nautical Twilight 3:03 AM EDT 10:03 PM EDT
Astronomical Twilight 1:42 AM EDT 11:23 PM EDT
Moon 1:44 PM EDT (6/17) 12:32 AM EDT (6/17)
Length of Visible Light 17h 11m
Length of Day
15h 52m
First Quarter, 60% of the Moon is Illuminated
Jun 17
First Quarter
Jun 23
Full
Jun 30
Last Quarter
Jul 8
New
Jul 15
First Quarter

Hourly Weather History & Observations

Time (EDT) Temp. Dew Point Humidity Pressure Visibility Wind Dir Wind Speed Gust Speed Precip Events Conditions
12:37 AM 51.8 °F 48.2 °F 88% 29.74 in 10.0 mi NNE 4.6 mph - N/A   Overcast
12:54 AM 51.1 °F 48.9 °F 92% 29.75 in 10.0 mi NNE 4.6 mph - N/A   Overcast
1:10 AM 51.8 °F 48.2 °F 88% 29.74 in 10.0 mi NNE 5.8 mph - N/A   Overcast
1:35 AM 51.8 °F 48.2 °F 88% 29.73 in 10.0 mi NE 4.6 mph - 0.00 in Rain Light Rain
1:54 AM 51.1 °F 50.0 °F 96% 29.74 in 10.0 mi NNE 4.6 mph - 0.00 in   Overcast
2:54 AM 51.1 °F 50.0 °F 96% 29.73 in 10.0 mi ENE 3.5 mph - 0.00 in   Overcast
3:33 AM 51.8 °F 50.0 °F 94% 29.71 in 10.0 mi NE 3.5 mph - N/A   Overcast
3:54 AM 51.1 °F 50.0 °F 96% 29.72 in 10.0 mi NE 3.5 mph - N/A   Overcast
4:54 AM 52.0 °F 50.0 °F 93% 29.74 in 10.0 mi Calm Calm - N/A   Overcast
5:54 AM 52.0 °F 50.0 °F 93% 29.74 in 10.0 mi ENE 4.6 mph - N/A   Overcast
6:22 AM 51.8 °F 51.8 °F 100% 29.73 in 10.0 mi East 4.6 mph - N/A   Overcast
6:41 AM 51.8 °F 50.0 °F 94% 29.73 in 10.0 mi East 4.6 mph - N/A   Overcast
6:54 AM 53.1 °F 51.1 °F 93% 29.75 in 10.0 mi East 3.5 mph - N/A   Overcast
7:18 AM 53.6 °F 51.8 °F 94% 29.74 in 10.0 mi SE 5.8 mph - N/A   Overcast
7:54 AM 53.1 °F 51.1 °F 93% 29.76 in 10.0 mi Calm Calm - N/A   Overcast
8:54 AM 54.0 °F 51.1 °F 90% 29.78 in 10.0 mi Calm Calm - N/A   Overcast
9:28 AM 53.6 °F 51.8 °F 94% 29.75 in 4.0 mi South 3.5 mph - N/A   Overcast
9:54 AM 54.0 °F 52.0 °F 93% 29.77 in 10.0 mi SW 3.5 mph - N/A   Overcast
10:22 AM 55.4 °F 51.8 °F 88% 29.75 in 10.0 mi West 3.5 mph - N/A   Overcast
10:54 AM 55.9 °F 53.1 °F 90% 29.76 in 9.0 mi Calm Calm - N/A   Overcast
11:54 AM 57.0 °F 53.1 °F 87% 29.77 in 10.0 mi South 4.6 mph - N/A   Overcast
12:01 PM 57.2 °F 53.6 °F 88% 29.76 in 10.0 mi South 4.6 mph - N/A   Overcast
12:10 PM 57.2 °F 53.6 °F 88% 29.76 in 10.0 mi South 4.6 mph - N/A   Overcast
12:34 PM 59.0 °F 53.6 °F 82% 29.75 in 10.0 mi Calm Calm - N/A   Overcast
12:54 PM 57.9 °F 53.1 °F 84% 29.77 in 10.0 mi SE 3.5 mph - N/A   Overcast
1:01 PM 59.0 °F 53.6 °F 82% 29.75 in 10.0 mi SSE 3.5 mph - N/A   Overcast
1:10 PM 57.2 °F 53.6 °F 88% 29.75 in 10.0 mi SSE 3.5 mph - N/A   Overcast
1:29 PM 59.0 °F 53.6 °F 82% 29.75 in 10.0 mi SSW 4.6 mph - N/A   Overcast
1:54 PM 57.9 °F 55.0 °F 90% 29.77 in 10.0 mi Calm Calm - 0.00 in   Overcast
2:16 PM 60.8 °F 55.4 °F 82% 29.75 in 10.0 mi Calm Calm - N/A   Overcast
2:54 PM 61.0 °F 54.0 °F 78% 29.77 in 10.0 mi Calm Calm - N/A   Overcast
3:18 PM 60.8 °F 53.6 °F 77% 29.75 in 10.0 mi Calm Calm - N/A   Overcast
3:54 PM 63.0 °F 55.0 °F 75% 29.76 in 10.0 mi South 5.8 mph - 0.00 in   Mostly Cloudy
4:54 PM 64.0 °F 55.0 °F 73% 29.75 in 10.0 mi Calm Calm - N/A   Overcast
5:42 PM 62.6 °F 55.4 °F 77% 29.74 in 10.0 mi SSE 3.5 mph - N/A   Mostly Cloudy
5:49 PM 62.6 °F 55.4 °F 77% 29.75 in 10.0 mi SSE 3.5 mph - N/A   Overcast
5:54 PM 63.0 °F 55.9 °F 78% 29.76 in 10.0 mi Calm Calm - N/A   Overcast
6:54 PM 63.0 °F 57.9 °F 84% 29.75 in 10.0 mi SE 3.5 mph - 0.02 in   Mostly Cloudy
7:54 PM 61.0 °F 57.9 °F 90% 29.77 in 10.0 mi Calm Calm - 0.00 in   Mostly Cloudy
8:54 PM 60.1 °F 57.0 °F 90% 29.77 in 10.0 mi South 3.5 mph - N/A   Mostly Cloudy
9:54 PM 60.1 °F 57.0 °F 90% 29.78 in 10.0 mi SSW 4.6 mph - N/A   Mostly Cloudy
10:54 PM 57.0 °F 55.0 °F 93% 29.78 in 10.0 mi WSW 8.1 mph - N/A   Mostly Cloudy
11:54 PM 55.9 °F 53.1 °F 90% 29.79 in 10.0 mi Variable 3.5 mph - N/A   Scattered Clouds